| time (UTC) | temp C | wind direction | speed KPH | gust KPH | rain 1hr cm | rain 24hr cm | rain mn cm | humidity % | barometer mb |
| 20260503235838 | 22 | 48 | 0.0 | 1.6 | 0.00 | 0.00 | 0.00 | 42 | 1017.4 |
| 20260503235336 | 22 | 48 | 0.0 | 3.2 | 0.00 | 0.00 | 0.00 | 39 | 1017.4 |
| 20260503234833 | 23 | 48 | 1.6 | 4.8 | 0.00 | 0.00 | 0.00 | 37 | 1017.4 |
| 20260503234334 | 23 | 48 | 3.2 | 6.4 | 0.00 | 0.00 | 0.00 | 35 | 1017.4 |
| 20260503233834 | 23 | 34 | 1.6 | 6.4 | 0.00 | 0.00 | 0.00 | 36 | 1017.5 |
| 20260503233329 | 23 | 65 | 1.6 | 6.4 | 0.00 | 0.00 | 0.00 | 35 | 1017.5 |
| 20260503233100 | 24 | 94 | 1.6 | 6.4 | 0.00 | 0.00 | 0.00 | 35 | 1017.6 |
| 20260503232329 | 24 | 47 | 1.6 | 6.4 | 0.00 | 0.00 | 0.00 | 36 | 1017.7 |
| 20260503231826 | 24 | 74 | 1.6 | 4.8 | 0.00 | 0.00 | 0.00 | 35 | 1017.7 |
| 20260503231326 | 24 | 306 | 3.2 | 8.0 | 0.00 | 0.00 | 0.00 | 33 | 1017.6 |
| 20260503230825 | 24 | 79 | 3.2 | 8.0 | 0.00 | 0.00 | 0.00 | 33 | 1017.5 |
| 20260503230329 | 24 | 58 | 3.2 | 11.3 | 0.00 | 0.00 | 0.00 | 34 | 1017.6 |
| 20260503230325 | 24 | 53 | 4.8 | 11.3 | 0.00 | 0.00 | 0.00 | 32 | 1017.5 |
| 20260503225325 | 25 | 1 | 1.6 | 4.8 | 0.00 | 0.00 | 0.00 | 32 | 1017.6 |
| 20260503224826 | 25 | 326 | 3.2 | 6.4 | 0.00 | 0.00 | 0.00 | 32 | 1017.5 |
| 20260503224325 | 25 | 24 | 3.2 | 11.3 | 0.00 | 0.00 | 0.00 | 32 | 1017.6 |
| 20260503223822 | 25 | 326 | 3.2 | 11.3 | 0.00 | 0.00 | 0.00 | 32 | 1017.6 |
| 20260503223320 | 25 | 109 | 3.2 | 8.0 | 0.00 | 0.00 | 0.00 | 32 | 1017.5 |
| 20260503222819 | 25 | 76 | 3.2 | 8.0 | 0.00 | 0.00 | 0.00 | 31 | 1017.6 |
| 20260503222320 | 25 | 347 | 3.2 | 12.9 | 0.00 | 0.00 | 0.00 | 31 | 1017.5 |
| 20260503222049 | 25 | 262 | 3.2 | 12.9 | 0.00 | 0.00 | 0.00 | 34 | 1017.5 |
| 20260503221317 | 25 | 326 | 1.6 | 9.7 | 0.00 | 0.00 | 0.00 | 33 | 1017.6 |
| 20260503220816 | 25 | 96 | 3.2 | 12.9 | 0.00 | 0.00 | 0.00 | 32 | 1017.6 |
| 20260503220315 | 25 | 346 | 4.8 | 12.9 | 0.00 | 0.00 | 0.00 | 32 | 1017.6 |
| 20260503220045 | 25 | 86 | 3.2 | 8.0 | 0.00 | 0.00 | 0.00 | 31 | 1017.6 |
| 20260503215312 | 25 | 7 | 3.2 | 9.7 | 0.00 | 0.00 | 0.00 | 30 | 1017.7 |
| 20260503214811 | 25 | 249 | 3.2 | 9.7 | 0.00 | 0.00 | 0.00 | 32 | 1017.7 |
| 20260503214309 | 25 | 52 | 1.6 | 9.7 | 0.00 | 0.00 | 0.00 | 32 | 1017.8 |
| 20260503213809 | 25 | 35 | 1.6 | 9.7 | 0.00 | 0.00 | 0.00 | 30 | 1017.8 |
| 20260503213308 | 25 | 59 | 1.6 | 14.5 | 0.00 | 0.00 | 0.00 | 31 | 1017.7 |
| 20260503212805 | 25 | 217 | 3.2 | 14.5 | 0.00 | 0.00 | 0.00 | 30 | 1017.8 |
| 20260503212305 | 25 | 217 | 3.2 | 11.3 | 0.00 | 0.00 | 0.00 | 30 | 1017.9 |
| 20260503211804 | 25 | 354 | 4.8 | 11.3 | 0.00 | 0.00 | 0.00 | 30 | 1018.0 |
| 20260503211303 | 25 | 62 | 4.8 | 9.7 | 0.00 | 0.00 | 0.00 | 32 | 1018.0 |
| 20260503210808 | 25 | 52 | 4.8 | 14.5 | 0.00 | 0.00 | 0.00 | 30 | 1018.0 |
| 20260503210804 | 25 | 10 | 4.8 | 14.5 | 0.00 | 0.00 | 0.00 | 32 | 1018.1 |
| 20260503210033 | 25 | 300 | 3.2 | 8.0 | 0.00 | 0.00 | 0.00 | 31 | 1018.0 |
| 20260503205532 | 25 | 240 | 4.8 | 11.3 | 0.00 | 0.00 | 0.00 | 33 | 1018.2 |
| 20260503204802 | 25 | 81 | 4.8 | 11.3 | 0.00 | 0.00 | 0.00 | 31 | 1018.4 |
| 20260503204301 | 25 | 68 | 3.2 | 12.9 | 0.00 | 0.00 | 0.00 | 32 | 1018.5 |
| 20260503203759 | 25 | 48 | 3.2 | 12.9 | 0.00 | 0.00 | 0.00 | 29 | 1018.5 |
| 20260503203300 | 25 | 335 | 3.2 | 9.7 | 0.00 | 0.00 | 0.00 | 30 | 1018.6 |
| 20260503202759 | 25 | 218 | 3.2 | 9.7 | 0.00 | 0.00 | 0.00 | 30 | 1018.7 |
| 20260503202259 | 25 | 328 | 3.2 | 11.3 | 0.00 | 0.00 | 0.00 | 30 | 1018.8 |
| 20260503201800 | 25 | 39 | 3.2 | 11.3 | 0.00 | 0.00 | 0.00 | 29 | 1018.9 |
| 20260503201257 | 25 | 23 | 3.2 | 11.3 | 0.00 | 0.00 | 0.00 | 29 | 1019.0 |
| 20260503201025 | 25 | 146 | 3.2 | 14.5 | 0.00 | 0.00 | 0.00 | 31 | 1019.1 |
| 20260503200256 | 25 | 321 | 4.8 | 14.5 | 0.00 | 0.00 | 0.00 | 30 | 1019.1 |
| 20260503195755 | 25 | 326 | 4.8 | 11.3 | 0.00 | 0.00 | 0.00 | 30 | 1019.1 |
| 20260503195253 | 25 | 296 | 3.2 | 9.7 | 0.00 | 0.00 | 0.00 | 31 | 1019.3 |
| 20260503194754 | 25 | 303 | 3.2 | 9.7 | 0.00 | 0.00 | 0.00 | 30 | 1019.5 |
| 20260503194253 | 25 | 72 | 1.6 | 9.7 | 0.00 | 0.00 | 0.00 | 29 | 1019.4 |
| 20260503193754 | 25 | 117 | 1.6 | 8.0 | 0.00 | 0.00 | 0.00 | 30 | 1019.4 |
| 20260503193253 | 25 | 263 | 4.8 | 12.9 | 0.00 | 0.00 | 0.00 | 32 | 1019.6 |
| 20260503192753 | 24 | 318 | 4.8 | 12.9 | 0.00 | 0.00 | 0.00 | 30 | 1019.7 |
| 20260503192254 | 24 | 84 | 6.4 | 17.7 | 0.00 | 0.00 | 0.00 | 30 | 1019.8 |
| 20260503191753 | 25 | 35 | 4.8 | 17.7 | 0.00 | 0.00 | 0.00 | 28 | 1019.8 |
| 20260503191253 | 25 | 88 | 3.2 | 11.3 | 0.00 | 0.00 | 0.00 | 28 | 1019.8 |
| 20260503190754 | 25 | 337 | 1.6 | 9.7 | 0.00 | 0.00 | 0.00 | 30 | 1019.9 |
| 20260503190253 | 24 | 150 | 3.2 | 11.3 | 0.00 | 0.00 | 0.00 | 30 | 1020.1 |
| 20260503185753 | 24 | 129 | 4.8 | 12.9 | 0.00 | 0.00 | 0.00 | 26 | 1020.1 |
| 20260503185525 | 25 | 319 | 3.2 | 12.9 | 0.00 | 0.00 | 0.00 | 28 | 1020.3 |
| 20260503185024 | 25 | 60 | 4.8 | 14.5 | 0.00 | 0.00 | 0.00 | 27 | 1020.3 |
| 20260503184253 | 25 | 43 | 4.8 | 14.5 | 0.00 | 0.00 | 0.00 | 28 | 1020.4 |
| 20260503183750 | 25 | 21 | 3.2 | 12.9 | 0.00 | 0.00 | 0.00 | 35 | 1020.5 |
| 20260503183250 | 25 | 324 | 3.2 | 12.9 | 0.00 | 0.00 | 0.00 | 29 | 1020.5 |
| 20260503182749 | 24 | 159 | 3.2 | 12.9 | 0.00 | 0.00 | 0.00 | 30 | 1020.5 |
| 20260503182248 | 24 | 331 | 3.2 | 11.3 | 0.00 | 0.00 | 0.00 | 31 | 1020.6 |
| 20260503181747 | 24 | 315 | 4.8 | 14.5 | 0.00 | 0.00 | 0.00 | 32 | 1020.7 |
| 20260503181518 | 24 | 353 | 4.8 | 14.5 | 0.00 | 0.00 | 0.00 | 31 | 1020.8 |
| 20260503180747 | 24 | 283 | 3.2 | 12.9 | 0.00 | 0.00 | 0.00 | 33 | 1020.8 |
| 20260503180247 | 24 | 173 | 4.8 | 12.9 | 0.00 | 0.00 | 0.00 | 33 | 1020.8 |
| 20260503180017 | 24 | 153 | 4.8 | 12.9 | 0.00 | 0.00 | 0.00 | 32 | 1020.8 |
| 20260503175245 | 23 | 263 | 4.8 | 12.9 | 0.00 | 0.00 | 0.00 | 32 | 1020.9 |
| 20260503174746 | 23 | 323 | 4.8 | 12.9 | 0.00 | 0.00 | 0.00 | 33 | 1020.9 |
| 20260503174245 | 23 | 310 | 3.2 | 11.3 | 0.00 | 0.00 | 0.00 | 31 | 1020.9 |
| 20260503173745 | 23 | 338 | 4.8 | 14.5 | 0.00 | 0.00 | 0.00 | 34 | 1021.0 |
| 20260503173244 | 23 | 272 | 4.8 | 14.5 | 0.00 | 0.00 | 0.00 | 34 | 1021.0 |
| 20260503173014 | 23 | 302 | 4.8 | 14.5 | 0.00 | 0.00 | 0.00 | 31 | 1020.9 |
| 20260503172244 | 23 | 32 | 4.8 | 12.9 | 0.00 | 0.00 | 0.00 | 33 | 1021.0 |
| 20260503172014 | 23 | 288 | 3.2 | 16.1 | 0.00 | 0.00 | 0.00 | 36 | 1021.0 |
| 20260503171244 | 23 | 74 | 4.8 | 16.1 | 0.00 | 0.00 | 0.00 | 32 | 1021.1 |
| 20260503170743 | 23 | 341 | 4.8 | 12.9 | 0.00 | 0.00 | 0.00 | 34 | 1021.2 |
| 20260503170244 | 23 | 352 | 4.8 | 17.7 | 0.00 | 0.00 | 0.00 | 33 | 1021.3 |
| 20260503150737 | 21 | 335 | 6.4 | 19.3 | 0.00 | 0.00 | 0.00 | 38 | 1022.1 |
| 20260503150237 | 21 | 66 | 4.8 | 19.3 | 0.00 | 0.00 | 0.00 | 36 | 1022.1 |
| 20260503140229 | 19 | 78 | 3.2 | 8.0 | 0.00 | 0.00 | 0.00 | 49 | 1021.7 |
| 20260503131225 | 17 | 330 | 1.6 | 8.0 | 0.00 | 0.00 | 0.00 | 59 | 1021.1 |
| 20260503130725 | 16 | 84 | 1.6 | 6.4 | 0.00 | 0.00 | 0.00 | 59 | 1021.2 |
| 20260503130225 | 16 | 51 | 1.6 | 6.4 | 0.00 | 0.03 | 0.00 | 61 | 1021.1 |
| 20260503120221 | 10 | 15 | 0.0 | 1.6 | 0.00 | 0.03 | 0.00 | 93 | 1020.9 |
| 20260503110719 | 6 | 16 | 0.0 | 1.6 | 0.00 | 0.03 | 0.00 | 94 | 1020.3 |
| 20260503110219 | 6 | 16 | 0.0 | 1.6 | 0.00 | 0.05 | 0.00 | 94 | 1020.3 |
| 20260503100217 | 7 | 46 | 0.0 | 0.0 | 0.00 | 0.08 | 0.00 | 93 | 1020.0 |
| 20260503090213 | 7 | 46 | 0.0 | 1.6 | 0.00 | 0.38 | 0.00 | 93 | 1019.5 |
| 20260503081211 | 7 | 46 | 0.0 | 0.0 | 0.00 | 0.66 | 0.00 | 93 | 1019.3 |
| 20260503080711 | 7 | 46 | 0.0 | 0.0 | 0.00 | 0.71 | 0.00 | 93 | 1019.1 |
| 20260503080211 | 7 | 46 | 0.0 | 0.0 | 0.00 | 0.79 | 0.00 | 92 | 1019.2 |
| 20260503072710 | 7 | 46 | 0.0 | 0.0 | 0.00 | 1.19 | 0.00 | 92 | 1018.9 |
| 20260503072209 | 7 | 46 | 0.0 | 0.0 | 0.00 | 1.24 | 0.00 | 92 | 1018.9 |
| 20260503071709 | 8 | 46 | 0.0 | 0.0 | 0.00 | 1.35 | 0.00 | 92 | 1018.9 |
| 20260503071209 | 8 | 46 | 0.0 | 0.0 | 0.00 | 1.40 | 0.00 | 92 | 1019.0 |
| 20260503070709 | 8 | 46 | 0.0 | 0.0 | 0.00 | 1.42 | 0.00 | 92 | 1019.0 |
| 20260503070209 | 8 | 46 | 0.0 | 0.0 | 0.00 | 1.47 | 0.00 | 92 | 1019.0 |
| 20260503060207 | 8 | 46 | 0.0 | 0.0 | 0.00 | 2.29 | 0.00 | 89 | 1018.8 |
| 20260503054707 | 8 | 46 | 0.0 | 0.0 | 0.00 | 2.51 | 0.00 | 88 | 1018.7 |
| 20260503054205 | 8 | 46 | 0.0 | 0.0 | 0.00 | 2.54 | 0.00 | 88 | 1018.6 |
| 20260503053705 | 9 | 46 | 0.0 | 0.0 | 0.00 | 2.57 | 0.00 | 88 | 1018.6 |
| 20260503053437 | 9 | 46 | 0.0 | 0.0 | 0.00 | 2.57 | 0.00 | 88 | 1018.6 |
| 20260503052705 | 9 | 46 | 0.0 | 0.0 | 0.00 | 2.59 | 0.00 | 87 | 1018.6 |
| 20260503052436 | 9 | 46 | 0.0 | 0.0 | 0.00 | 2.62 | 0.00 | 86 | 1018.6 |
| 20260503051705 | 9 | 46 | 0.0 | 0.0 | 0.00 | 2.67 | 0.00 | 86 | 1018.6 |
| 20260503051205 | 9 | 46 | 0.0 | 0.0 | 0.00 | 2.69 | 0.00 | 86 | 1018.5 |
| 20260503050705 | 9 | 46 | 0.0 | 0.0 | 0.00 | 2.72 | 0.00 | 86 | 1018.5 |
| 20260503050435 | 9 | 46 | 0.0 | 0.0 | 0.00 | 2.77 | 0.00 | 86 | 1018.5 |
| 20260503045936 | 10 | 46 | 0.0 | 0.0 | 0.00 | 2.77 | 2.77 | 84 | 1018.5 |
| 20260503045206 | 10 | 46 | 0.0 | 0.0 | 0.00 | 2.77 | 2.77 | 84 | 1018.4 |
| 20260503044701 | 10 | 46 | 0.0 | 0.0 | 0.00 | 2.77 | 2.77 | 83 | 1018.4 |
| 20260503044201 | 10 | 46 | 0.0 | 0.0 | 0.00 | 2.77 | 2.77 | 83 | 1018.4 |
| 20260503043700 | 10 | 46 | 0.0 | 0.0 | 0.00 | 2.77 | 2.77 | 82 | 1018.4 |
| 20260503043157 | 10 | 46 | 0.0 | 0.0 | 0.00 | 2.77 | 2.77 | 82 | 1018.4 |
| 20260503042658 | 10 | 46 | 0.0 | 0.0 | 0.00 | 2.77 | 2.77 | 83 | 1018.4 |
| 20260503042157 | 10 | 46 | 0.0 | 0.0 | 0.00 | 2.77 | 2.77 | 84 | 1018.4 |
| 20260503041657 | 10 | 46 | 0.0 | 0.0 | 0.00 | 2.77 | 2.77 | 84 | 1018.3 |
| 20260503041155 | 10 | 46 | 0.0 | 0.0 | 0.00 | 2.77 | 2.77 | 84 | 1018.3 |
| 20260503040651 | 10 | 46 | 0.0 | 0.0 | 0.00 | 2.77 | 2.77 | 85 | 1018.3 |
| 20260503040149 | 10 | 46 | 0.0 | 0.0 | 0.00 | 2.77 | 2.77 | 84 | 1018.3 |
| 20260503035654 | 10 | 46 | 0.0 | 0.0 | 0.00 | 2.79 | 2.77 | 84 | 1018.2 |
| 20260503035650 | 10 | 46 | 0.0 | 0.0 | 0.00 | 2.77 | 2.77 | 84 | 1018.2 |
| 20260503034921 | 10 | 46 | 0.0 | 0.0 | 0.00 | 2.79 | 2.77 | 84 | 1018.2 |
| 20260503034147 | 10 | 46 | 0.0 | 0.0 | 0.00 | 2.79 | 2.77 | 83 | 1018.1 |
| 20260503033646 | 10 | 46 | 0.0 | 0.0 | 0.00 | 2.79 | 2.77 | 83 | 1018.0 |
| 20260503033145 | 10 | 46 | 0.0 | 0.0 | 0.00 | 2.79 | 2.77 | 83 | 1018.0 |
| 20260503032646 | 10 | 46 | 0.0 | 0.0 | 0.00 | 2.82 | 2.77 | 82 | 1018.0 |
| 20260503032141 | 10 | 46 | 0.0 | 0.0 | 0.00 | 2.82 | 2.77 | 82 | 1017.9 |
| 20260503031641 | 11 | 46 | 0.0 | 0.0 | 0.00 | 2.84 | 2.77 | 82 | 1017.8 |
| 20260503031142 | 11 | 46 | 0.0 | 0.0 | 0.00 | 2.92 | 2.77 | 81 | 1017.8 |
| 20260503030908 | 11 | 46 | 0.0 | 0.0 | 0.00 | 2.97 | 2.77 | 80 | 1017.8 |
| 20260503030137 | 11 | 46 | 0.0 | 0.0 | 0.00 | 3.00 | 2.77 | 80 | 1017.7 |
| 20260503025638 | 11 | 46 | 0.0 | 0.0 | 0.00 | 3.10 | 2.77 | 79 | 1017.7 |
| 20260503025133 | 11 | 46 | 0.0 | 0.0 | 0.00 | 3.12 | 2.77 | 79 | 1017.7 |
| 20260503024631 | 12 | 46 | 0.0 | 0.0 | 0.00 | 3.15 | 2.77 | 78 | 1017.7 |
| 20260503024132 | 12 | 46 | 0.0 | 0.0 | 0.00 | 3.17 | 2.77 | 78 | 1017.6 |
| 20260503023631 | 12 | 46 | 0.0 | 0.0 | 0.00 | 3.20 | 2.77 | 76 | 1017.6 |
| 20260503023131 | 13 | 46 | 0.0 | 0.0 | 0.00 | 3.28 | 2.77 | 75 | 1017.4 |
| 20260503022632 | 13 | 46 | 0.0 | 0.0 | 0.00 | 3.35 | 2.77 | 73 | 1017.3 |
| 20260503022130 | 13 | 46 | 0.0 | 0.0 | 0.00 | 3.40 | 2.77 | 70 | 1017.3 |
| 20260503021629 | 14 | 46 | 0.0 | 0.0 | 0.00 | 3.45 | 2.77 | 67 | 1017.2 |
| 20260503021130 | 14 | 46 | 0.0 | 0.0 | 0.00 | 3.51 | 2.77 | 65 | 1017.2 |
| 20260503020629 | 15 | 46 | 0.0 | 0.0 | 0.00 | 3.66 | 2.77 | 61 | 1017.1 |
| 20260503020359 | 15 | 46 | 0.0 | 0.0 | 0.00 | 3.78 | 2.77 | 60 | 1017.0 |
| 20260503015901 | 15 | 46 | 0.0 | 0.0 | 0.00 | 3.86 | 2.77 | 60 | 1017.0 |
| 20260503015401 | 15 | 9 | 0.0 | 0.0 | 0.00 | 3.91 | 2.77 | 60 | 1017.0 |
| 20260503014630 | 15 | 9 | 0.0 | 0.0 | 0.00 | 3.99 | 2.77 | 60 | 1016.9 |
| 20260503014129 | 15 | 77 | 0.0 | 0.0 | 0.00 | 4.01 | 2.77 | 59 | 1016.9 |
| 20260503013629 | 15 | 77 | 0.0 | 0.0 | 0.00 | 4.06 | 2.77 | 58 | 1016.9 |
| 20260503013129 | 16 | 77 | 0.0 | 0.0 | 0.00 | 4.17 | 2.77 | 57 | 1016.7 |
| 20260503012629 | 16 | 77 | 0.0 | 0.0 | 0.00 | 4.27 | 2.77 | 56 | 1016.6 |
| 20260503012129 | 16 | 309 | 0.0 | 0.0 | 0.00 | 4.34 | 2.77 | 55 | 1016.5 |
| 20260503011629 | 16 | 308 | 0.0 | 1.6 | 0.00 | 4.39 | 2.77 | 54 | 1016.5 |
| 20260503011129 | 16 | 308 | 0.0 | 4.8 | 0.00 | 4.39 | 2.77 | 53 | 1016.4 |
| 20260503010627 | 17 | 343 | 0.0 | 4.8 | 0.00 | 4.42 | 2.77 | 52 | 1016.4 |
| 20260503010124 | 17 | 267 | 0.0 | 1.6 | 0.00 | 4.45 | 2.77 | 51 | 1016.3 |
| 20260503005855 | 17 | 68 | 0.0 | 3.2 | 0.00 | 4.45 | 2.77 | 50 | 1016.3 |
| 20260503005355 | 17 | 68 | 0.0 | 3.2 | 0.00 | 4.45 | 2.77 | 49 | 1016.2 |
| 20260503004958 | 17 | 27 | 0.0 | 4.8 | 0.00 | 4.45 | 2.77 | 48 | 1016.0 |
| 20260503004855 | 17 | 74 | 0.0 | 3.2 | 0.00 | 4.45 | 2.77 | 49 | 1016.0 |
| 20260503003853 | 18 | 252 | 1.6 | 6.4 | 0.00 | 4.45 | 2.77 | 47 | 1015.9 |
| 20260503003122 | 18 | 311 | 1.6 | 6.4 | 0.00 | 4.47 | 2.77 | 46 | 1015.8 |
| 20260503002621 | 18 | 25 | 1.6 | 4.8 | 0.00 | 4.50 | 2.77 | 45 | 1015.7 |
| 20260503002356 | 18 | 351 | 1.6 | 6.4 | 0.00 | 4.60 | 2.77 | 45 | 1015.6 |
| 20260503002122 | 18 | 219 | 1.6 | 6.4 | 0.00 | 4.57 | 2.77 | 45 | 1015.6 |
| 20260503001119 | 19 | 351 | 3.2 | 6.4 | 0.00 | 4.70 | 2.77 | 43 | 1015.5 |
| 20260503000617 | 19 | 24 | 3.2 | 9.7 | 0.00 | 4.72 | 2.77 | 43 | 1015.4 |
| 20260503000347 | 19 | 42 | 3.2 | 11.3 | 0.00 | 4.72 | 2.77 | 42 | 1015.4 |